Theta_e
353 353 352 352 351 352 353 353 353 352 352 350 349 349 350 352 357 363 366 361 356 354 354 354 352 352 352 353 353 353 353 353 354 356 357 357 357 357 357 356 357 357 358 358 358 357 356 355 354 353 353 353 352 352 352 351 351 351 351 350 350 350 350 351 351 351 352 352 353 353 353 353 352 352
355 355 355 355 353 352 353 353 353 352 352 351 350 348 349 350 353 357 362 361 355 353 353 352 352 353 352 352 352 352 353 353 355 356 356 357 357 357 357 357 357 357 358 358 358 358 357 356 355 354 354 353 353 352 352 350 350 351 351 351 351 352 353 353 354 354 354 355 355 355 354 353 352 353
356 356 355 355 354 353 353 353 354 352 350 350 350 349 348 349 350 351 355 359 356 351 353 352 352 352 352 351 351 351 352 353 354 356 357 357 357 356 358 357 357 357 357 358 357 358 358 357 357 356 355 355 354 353 353 352 351 351 352 351 352 352 353 353 354 354 355 355 355 355 354 353 353 353
355 356 355 354 354 353 354 354 354 353 350 348 349 351 349 348 349 350 352 356 356 351 351 352 352 352 352 351 352 352 353 353 353 354 355 356 357 357 358 357 357 357 357 357 358 358 358 359 358 357 357 357 356 356 355 354 353 352 352 352 352 352 353 354 354 355 355 355 354 354 354 354 353 353
354 355 355 355 354 354 354 354 354 353 351 350 349 351 351 347 348 350 351 354 354 351 350 352 352 352 353 352 352 353 353 352 352 353 355 356 357 358 357 356 357 358 358 357 358 358 359 359 359 358 357 357 357 357 357 356 355 353 353 352 352 352 353 355 355 355 356 355 355 354 353 353 353 353
353 353 353 354 354 354 354 354 354 353 351 351 350 351 350 348 347 348 349 350 352 350 350 351 353 353 352 352 352 352 352 351 351 353 354 356 357 357 357 357 358 358 358 357 357 358 359 359 359 360 359 359 359 359 358 358 357 355 354 353 352 352 352 353 355 355 356 356 356 355 353 352 352 353
352 352 352 353 354 354 354 353 353 353 352 352 351 351 351 351 348 348 347 348 350 350 350 351 354 354 354 352 352 352 351 351 352 353 355 356 357 357 357 358 358 358 358 357 357 357 357 358 358 359 359 359 359 359 358 358 358 357 356 355 354 353 353 353 353 354 356 356 357 356 354 353 352 352
352 352 352 352 353 353 353 353 352 353 353 352 352 351 351 351 350 348 346 347 350 351 351 351 352 353 353 354 352 352 352 352 353 354 356 357 357 357 358 358 358 358 358 358 357 358 358 358 358 358 358 358 358 358 357 358 357 357 357 356 356 355 355 355 355 355 356 357 357 357 357 355 353 352
352 352 353 352 352 352 352 352 352 352 352 353 352 352 351 351 351 349 348 346 348 350 352 351 351 352 353 354 353 352 353 355 356 357 358 358 358 359 359 358 358 358 358 359 358 359 358 357 358 357 357 357 357 358 358 357 357 357 357 357 356 356 355 355 355 356 356 357 356 357 357 356 356 355
350 352 352 352 352 352 352 351 352 352 352 352 353 352 352 351 351 350 349 348 347 348 351 351 351 354 355 355 355 354 353 354 357 359 359 360 359 359 358 357 357 358 359 359 360 359 359 358 358 358 358 358 358 357 357 358 358 357 357 357 356 355 354 353 353 355 355 356 355 355 355 355 355 356
349 350 351 351 351 351 351 351 351 351 352 352 352 352 352 352 351 351 350 349 348 347 349 351 352 353 356 356 355 355 355 356 358 359 359 359 358 358 357 356 356 357 358 359 359 358 358 358 358 358 359 359 358 357 356 357 358 358 358 357 357 355 354 352 351 352 353 353 352 352 353 352 353 353
347 348 349 350 349 350 350 351 351 351 352 352 352 352 352 351 351 350 349 349 350 349 350 350 351 354 355 357 356 356 357 358 358 358 357 357 356 355 354 354 355 356 358 359 359 359 359 358 359 359 359 359 358 357 357 358 358 358 358 357 357 356 355 353 352 351 351 352 352 351 351 352 353 353
347 348 348 349 349 348 348 349 350 351 352 351 351 351 352 351 351 351 350 348 349 351 352 351 352 353 355 357 357 356 357 357 356 356 356 355 354 353 354 354 355 356 358 358 358 358 358 358 359 359 359 358 357 357 358 358 357 357 357 357 357 356 356 354 353 352 351 351 351 350 351 351 352 352
347 347 347 348 347 346 347 347 349 351 353 353 351 350 350 351 351 351 350 349 348 350 353 353 352 354 355 356 356 356 356 356 355 355 355 354 354 354 355 355 355 356 357 356 355 356 356 358 359 360 358 358 358 357 358 356 355 355 355 355 356 356 357 356 355 354 352 351 350 350 349 350 349 350
347 346 346 347 347 346 345 346 348 349 351 352 352 350 350 350 351 350 350 350 348 348 350 353 353 352 354 357 357 356 355 356 355 355 355 354 354 354 354 356 355 354 355 356 356 355 355 357 359 359 358 357 358 358 357 355 355 354 354 354 354 354 355 357 356 355 355 353 352 350 349 349 350 351
345 346 346 348 348 346 346 345 347 347 348 349 349 349 350 350 350 351 351 350 350 348 348 351 350 349 351 355 358 358 356 355 355 355 354 354 354 353 354 354 354 353 353 355 356 355 354 356 357 357 356 357 357 357 357 356 355 355 353 352 352 353 355 356 355 355 354 353 352 351 350 351 351 352
345 346 347 348 348 347 346 346 346 347 347 348 348 349 349 349 350 351 351 351 351 350 349 349 349 349 349 350 354 358 358 357 356 355 355 355 354 353 354 354 353 353 354 354 355 355 354 355 356 356 355 356 357 357 357 356 355 353 353 352 352 354 356 356 355 354 353 353 352 352 352 352 352 351
344 345 346 347 347 347 347 346 346 346 346 347 348 348 348 349 349 350 351 351 351 351 350 349 349 350 349 349 351 354 358 358 357 356 356 355 355 354 355 354 353 354 354 353 355 355 354 355 356 356 355 356 356 356 355 354 353 353 352 353 353 354 355 355 354 354 353 353 353 352 352 352 351 350
344 344 345 345 346 346 346 347 346 346 346 347 348 348 348 349 350 350 351 351 351 352 352 351 350 350 349 350 350 351 354 357 359 358 357 356 356 355 355 354 354 353 353 353 355 357 355 354 356 356 355 356 356 354 354 353 353 352 352 353 353 354 355 355 354 354 353 352 352 352 352 351 351 350
342 343 343 344 345 345 345 346 346 346 346 348 348 349 349 349 350 350 350 351 351 352 352 352 352 351 350 349 350 351 351 353 354 356 357 356 355 354 353 353 352 353 353 352 354 357 356 355 356 356 355 355 355 354 354 353 352 351 351 352 354 354 354 354 354 353 351 350 351 351 350 350 350 348
341 341 342 343 344 344 345 345 346 346 346 347 348 348 349 349 350 350 349 350 350 351 352 353 352 351 350 348 350 351 350 350 350 352 353 354 354 353 353 353 352 353 353 353 353 355 356 355 355 355 354 354 354 354 354 353 352 351 351 352 353 353 352 352 353 352 351 350 350 349 348 348 348 347
340 340 339 341 343 345 345 344 345 346 346 346 346 346 346 347 347 347 347 348 349 349 351 352 352 351 350 349 350 351 350 350 350 350 352 353 353 353 353 353 352 353 353 353 353 355 356 355 355 355 354 354 354 354 354 353 351 351 351 352 352 350 349 350 351 351 349 348 348 347 347 347 346 346
340 339 339 339 341 343 343 344 344 345 345 346 345 344 343 344 345 345 345 345 346 347 348 349 350 351 350 350 350 350 350 351 350 350 351 351 352 352 353 354 354 354 354 353 354 356 356 355 355 355 354 353 352 352 352 352 350 350 351 351 349 348 348 350 350 349 348 346 345 345 346 346 346 343
340 339 338 339 340 342 342 343 343 344 345 345 346 344 343 343 344 345 345 344 345 345 345 347 349 350 351 351 351 350 351 352 351 351 352 352 352 353 354 354 354 354 354 354 355 356 355 355 355 354 353 353 350 348 350 352 351 350 350 350 348 347 348 349 349 348 347 346 345 345 346 346 343 340
339 339 338 339 340 341 342 342 343 343 344 345 346 345 344 344 345 346 345 345 345 345 346 348 349 350 350 351 350 350 351 352 352 352 352 353 354 354 355 355 354 354 354 354 354 355 355 355 355 354 353 352 349 347 347 348 349 350 350 348 347 347 349 349 348 347 346 345 345 344 344 342 339 336
339 338 338 339 339 340 340 341 341 342 342 343 345 346 345 344 346 347 347 346 346 347 348 349 349 349 350 349 350 349 350 351 351 352 351 351 353 355 355 356 354 354 354 354 354 354 354 355 354 353 352 351 349 347 345 344 345 348 347 347 346 348 348 348 347 346 345 344 342 342 340 337 334 334
339 339 339 339 339 340 339 339 340 341 342 343 344 345 344 343 344 345 347 347 346 346 347 348 348 349 350 350 350 350 350 351 350 351 351 352 353 354 355 355 356 354 354 354 354 353 353 353 353 352 352 351 348 347 345 343 343 344 345 345 346 346 346 346 346 345 343 342 341 338 335 333 333 334
339 339 338 337 337 337 337 338 339 340 341 342 343 343 343 343 343 343 344 345 346 346 346 347 348 349 350 350 350 350 351 351 352 352 352 352 352 353 354 354 355 355 355 355 355 353 352 352 353 352 352 351 349 347 347 345 344 343 344 342 343 344 344 345 345 344 342 341 339 335 334 335 336 336
338 337 335 334 334 334 335 336 337 338 340 341 341 342 343 343 343 342 342 343 344 344 345 346 347 349 350 349 350 350 350 351 352 352 352 352 353 353 353 353 353 354 355 355 354 353 353 352 353 352 351 351 349 348 347 346 344 343 343 341 340 340 342 344 344 342 341 340 337 335 335 336 337 337
336 335 334 333 333 333 334 336 337 338 339 340 341 341 343 343 341 339 339 341 342 342 343 344 346 348 349 350 350 350 350 350 350 351 351 351 353 353 353 353 353 353 354 354 354 354 353 353 353 352 351 351 349 347 346 345 343 341 342 341 339 338 340 342 342 341 340 338 335 334 334 334 334 334
335 333 333 334 334 334 335 336 337 337 337 338 340 340 341 342 342 340 339 339 341 343 343 343 343 345 348 350 350 349 348 348 349 349 350 350 351 352 352 353 353 353 354 354 353 353 354 354 352 351 350 349 348 346 346 345 343 340 340 341 340 338 338 338 339 338 337 335 333 333 333 332 331 331
333 333 333 333 334 334 335 335 336 337 336 338 340 341 341 342 343 342 340 339 341 342 343 343 343 344 345 347 348 348 348 348 348 349 350 350 350 350 351 351 351 352 352 352 352 351 352 353 351 349 348 348 346 346 345 344 343 341 339 339 340 339 338 336 335 335 334 333 332 332 333 333 332 330
332 331 332 332 333 333 334 334 335 336 337 338 340 340 341 342 342 342 342 341 341 342 342 342 343 343 345 346 347 347 348 348 348 349 349 350 350 350 350 350 350 350 350 350 349 349 350 350 349 348 347 346 345 345 344 343 343 342 340 339 339 338 336 334 334 333 332 332 331 330 331 332 331 330
330 330 331 331 332 333 334 334 335 336 337 339 340 341 342 342 342 342 342 342 342 343 342 342 343 344 346 347 348 348 348 348 348 349 349 350 350 349 349 349 348 349 349 349 349 349 348 348 348 347 346 345 343 344 344 344 343 342 341 340 339 338 335 333 332 332 331 332 331 329 327 328 329 329
329 330 331 332 332 333 333 334 335 336 337 338 339 341 342 343 343 343 343 343 343 344 343 344 345 346 347 347 347 348 348 348 349 349 349 349 350 350 350 349 349 349 349 349 348 348 348 347 345 343 341 339 339 339 340 342 343 341 340 340 339 337 334 332 332 332 331 332 333 329 324 323 325 326
328 330 331 331 331 332 333 334 335 337 337 338 338 339 340 341 342 343 343 344 344 344 345 345 345 345 347 347 347 347 347 348 348 348 349 349 350 350 350 349 349 349 349 348 348 347 347 345 343 340 337 337 339 339 337 338 341 341 340 339 338 335 332 331 332 333 332 331 333 330 324 321 320 322
327 328 329 329 330 332 333 333 334 336 337 338 338 339 340 340 341 341 341 341 342 343 345 345 346 346 346 346 347 347 347 347 347 348 348 349 349 350 349 348 348 348 348 348 347 347 344 342 341 340 339 339 342 340 335 334 338 340 339 339 335 331 330 329 328 328 329 329 329 328 325 321 319 319
325 326 327 328 330 332 333 334 335 336 337 338 338 339 339 340 339 339 339 339 339 339 342 344 345 343 343 343 345 347 347 347 347 347 347 348 349 349 348 346 346 346 346 346 345 345 343 341 340 340 340 340 340 338 334 332 334 338 339 338 334 330 330 329 326 323 324 324 323 322 321 319 317 316
323 325 327 329 331 332 333 334 335 336 337 338 339 339 339 339 338 338 337 338 338 338 340 341 342 341 340 341 343 346 347 346 347 347 347 348 348 348 347 345 344 343 343 342 340 340 340 340 340 340 341 339 337 335 332 330 331 335 338 338 336 334 331 328 324 321 320 320 319 318 317 315 313 312
324 325 327 329 330 332 332 333 334 335 336 337 338 338 337 338 338 337 337 337 338 339 340 340 341 341 341 341 342 343 344 344 344 345 346 347 347 347 347 346 344 343 341 339 338 337 337 338 338 339 338 336 334 333 332 331 331 333 335 336 336 336 334 332 329 323 319 318 319 316 312 310 308 306
328 328 329 330 331 332 333 334 335 336 337 337 337 336 336 337 338 338 338 338 339 339 340 341 340 340 340 340 340 341 342 342 343 344 344 346 347 347 348 347 345 342 339 338 337 336 336 336 336 336 335 334 333 333 333 331 328 328 330 332 332 333 332 333 332 328 322 319 317 312 307 306 305 304
331 332 333 333 333 334 334 335 336 337 337 337 337 336 337 338 338 338 338 339 340 341 341 341 341 341 341 341 341 342 342 343 343 343 344 345 346 346 347 347 343 340 339 337 335 333 333 333 334 334 334 334 334 332 330 326 324 324 325 327 327 327 327 328 329 327 322 319 316 313 308 305 304 303
331 332 332 333 333 334 334 335 337 337 337 336 336 336 336 337 338 338 339 340 341 341 340 340 340 341 341 342 343 343 344 344 344 344 344 345 345 345 344 343 340 338 335 333 330 330 331 332 333 333 332 332 332 330 326 325 324 323 322 322 322 322 322 322 323 323 321 319 319 319 317 313 310 307
332 331 332 333 334 333 334 336 337 337 336 335 336 337 337 338 339 339 339 340 340 339 338 338 338 338 339 340 342 342 342 342 342 342 342 342 342 340 339 337 335 333 331 329 329 330 330 330 331 331 330 329 329 327 325 324 324 322 321 320 320 319 318 317 317 318 319 320 319 319 320 319 317 315
334 333 333 334 334 335 336 337 337 336 336 337 338 337 338 339 339 338 338 338 338 337 337 336 335 335 336 337 337 338 339 338 339 338 337 336 337 337 335 334 332 331 330 330 330 330 329 328 329 329 328 326 327 326 325 324 323 322 321 320 319 318 318 317 317 318 319 320 321 320 319 319 316 312
Wind_Speed
18 18 19 20 22 22 21 21 21 20 17 15 16 19 19 15 7 3 5 4 6 14 18 18 18 19 20 21 22 25 26 27 26 25 26 27 28 28 28 28 27 27 27 27 26 26 25 25 26 26 26 25 25 25 25 25 24 23 22 22 22 22 21 21 22 22 22 22 21 21 20 19 19 18
16 17 18 19 20 22 22 23 23 22 20 17 17 18 21 22 16 8 5 6 9 13 16 19 19 19 19 19 21 23 24 25 25 25 25 26 25 26 25 26 26 26 26 26 26 25 24 24 24 24 24 24 24 24 24 24 23 22 22 22 21 22 22 22 22 22 22 22 21 21 20 19 19 18
17 18 20 21 21 22 22 22 23 25 24 22 20 20 21 23 24 19 10 4 9 14 16 18 19 18 18 18 20 22 22 23 24 25 26 25 24 24 23 23 23 24 25 25 25 25 24 24 24 24 24 24 24 23 23 23 23 22 22 22 22 22 23 23 23 23 22 22 21 20 20 20 19 19
19 20 21 23 23 22 23 24 25 25 24 24 23 21 21 22 25 25 17 6 9 17 19 18 18 17 17 18 20 21 21 22 23 25 26 25 24 23 24 23 23 23 23 24 24 24 24 24 24 24 25 24 24 23 23 23 23 23 23 22 22 22 22 22 22 22 22 22 21 21 21 21 20 19
20 21 22 23 23 22 23 24 24 23 24 24 22 20 19 21 24 26 22 11 9 17 21 19 18 17 16 18 19 20 21 22 23 24 25 24 24 24 25 24 23 23 22 22 22 22 21 22 22 23 24 24 24 24 23 23 23 24 24 23 22 22 22 22 22 22 22 22 22 22 22 21 20 20
20 21 23 24 23 22 23 23 24 24 24 25 23 21 19 19 20 22 23 18 12 14 20 21 20 18 18 18 18 19 21 21 22 23 24 24 24 24 24 24 23 22 22 21 20 20 20 21 22 23 23 24 24 24 24 23 24 24 24 24 24 23 23 23 23 23 22 23 23 23 22 22 21 21
20 21 22 24 23 21 21 22 23 24 25 25 24 24 23 21 20 20 21 22 17 15 19 22 22 20 20 20 19 19 20 21 21 23 23 23 23 23 23 23 23 23 22 20 19 20 21 21 22 22 22 23 23 23 24 24 24 24 24 24 24 24 24 25 25 25 24 24 24 24 23 23 22 22
20 21 22 23 23 22 22 23 23 24 25 25 25 26 26 24 23 21 19 21 22 19 18 20 24 24 23 23 22 20 20 21 23 24 23 23 23 24 24 24 24 24 23 21 20 20 21 21 20 20 20 20 21 22 23 24 24 24 24 24 24 24 25 26 26 26 26 26 25 25 24 24 23 23
21 21 22 23 23 23 23 24 24 24 24 25 26 27 26 25 24 23 20 19 22 22 20 20 24 25 24 24 23 23 22 23 24 24 24 24 24 24 25 25 25 25 24 22 21 21 22 21 20 19 19 19 20 21 22 23 24 24 24 24 23 23 24 25 26 26 26 26 25 25 24 24 23 23
21 21 21 23 23 23 24 24 24 24 24 24 25 26 26 26 24 24 22 19 19 22 24 23 23 22 24 24 23 24 24 23 24 24 24 24 24 24 24 25 25 25 24 23 22 22 22 21 20 20 19 20 20 21 22 23 23 24 24 23 23 22 22 23 24 24 25 24 24 24 23 23 23 21
21 21 21 21 22 23 24 25 24 24 24 24 24 26 26 25 24 23 23 19 17 20 23 23 22 22 24 24 23 24 25 24 24 24 23 22 24 24 24 25 26 25 24 23 23 22 21 21 20 19 19 20 20 20 21 22 22 23 24 23 23 22 22 22 22 22 22 22 22 22 21 22 22 21
21 22 21 21 21 23 25 26 25 25 25 24 25 26 25 24 23 23 22 19 17 18 20 22 23 22 22 22 21 21 22 21 21 23 23 23 25 25 25 26 25 25 24 23 23 22 22 21 20 20 20 20 19 19 19 20 21 22 23 23 23 23 22 22 21 21 21 21 21 21 21 20 20 19
21 22 22 22 22 22 23 25 25 25 25 25 25 25 24 22 22 22 21 19 17 16 17 19 21 20 19 21 20 19 22 23 24 25 24 23 24 24 23 25 25 24 23 23 24 24 23 22 21 21 20 19 18 18 18 19 19 20 21 22 22 22 21 21 21 21 21 21 21 20 20 19 18 17
22 22 23 23 22 22 22 23 23 23 24 25 26 26 26 25 24 23 21 20 19 17 16 17 18 16 16 21 24 24 26 28 26 24 24 24 22 19 17 19 23 24 23 22 23 24 23 22 21 21 21 19 18 17 17 17 17 17 18 20 20 21 21 20 21 21 20 20 20 19 19 18 16 15
23 23 23 23 22 22 23 23 23 23 23 25 26 26 27 27 27 26 24 21 20 19 17 17 15 14 16 22 27 28 27 27 26 25 24 24 21 17 13 12 16 21 22 22 23 24 23 21 21 21 21 20 18 17 16 15 15 16 16 17 18 18 18 18 19 20 20 19 18 18 17 16 14 12
24 24 25 25 23 23 24 24 24 24 24 24 25 26 27 27 28 30 29 27 24 21 19 18 16 19 22 21 24 27 26 26 27 26 24 23 21 19 17 14 15 17 18 20 22 24 23 21 21 22 21 19 18 17 16 16 16 15 15 15 16 15 14 15 16 16 17 17 16 15 13 12 10 9
25 25 25 25 25 24 24 24 24 24 24 24 25 25 26 27 28 30 31 32 30 28 25 22 22 25 26 23 23 28 29 28 26 24 23 24 23 21 21 22 23 20 16 17 19 20 22 20 19 20 19 17 17 16 16 16 15 14 14 15 14 14 14 14 13 13 13 12 12 11 9 8 8 7
24 25 25 26 26 26 25 25 24 24 25 25 26 25 25 27 28 29 30 32 33 33 32 29 28 29 28 28 30 31 29 28 27 26 26 26 24 24 24 25 25 21 17 16 14 15 19 19 18 19 18 16 17 16 15 16 15 13 13 13 13 13 13 14 13 12 11 10 9 9 8 8 8 8
23 24 25 26 26 27 27 26 25 24 24 25 26 26 26 27 27 28 29 30 32 34 35 35 34 33 32 32 34 33 29 27 26 26 25 25 24 24 23 22 22 21 20 18 15 13 17 19 18 18 18 16 16 15 14 14 13 12 12 12 12 12 12 13 13 11 10 9 8 8 9 9 10 11
23 24 25 26 26 27 27 27 26 24 23 23 25 26 26 26 26 27 29 30 31 33 34 36 36 35 33 31 32 33 29 25 25 24 22 20 20 19 16 17 21 23 21 21 20 17 16 17 17 16 16 15 15 15 14 12 11 12 12 12 11 11 11 11 11 10 10 9 9 11 11 10 11 12
23 23 25 26 26 26 27 27 26 24 22 23 25 26 25 25 25 28 30 29 29 31 33 35 36 35 33 31 31 31 26 24 25 23 19 19 20 17 11 12 18 22 21 21 22 20 17 17 16 14 13 13 14 13 13 12 11 12 12 12 11 11 11 11 12 12 11 10 11 13 12 11 13 14
22 23 25 25 25 25 26 26 26 25 23 24 25 25 25 23 24 27 28 27 28 31 32 33 34 34 33 33 32 29 27 27 27 24 23 25 24 19 14 14 16 19 21 22 22 19 18 18 16 12 10 11 13 14 13 12 12 12 13 13 12 11 10 11 13 14 14 12 12 11 11 13 16 17
23 24 25 25 24 24 24 24 25 24 24 25 26 25 24 24 27 29 28 27 28 30 30 31 33 33 33 34 34 31 31 31 30 29 31 31 26 22 20 19 14 9 13 22 24 21 19 19 18 15 9 6 8 13 14 12 12 13 14 13 12 11 10 11 13 15 15 14 12 12 13 16 18 20
23 24 24 24 24 23 22 22 22 22 24 26 26 25 24 26 30 29 26 26 27 27 27 29 31 32 32 33 31 30 31 32 31 32 34 34 31 27 24 23 18 13 15 21 23 23 21 19 19 20 16 7 5 11 16 15 13 13 14 13 12 12 12 13 15 16 15 15 14 13 15 18 20 21
23 24 24 24 23 21 21 21 20 21 23 25 25 25 25 27 28 26 24 26 27 26 27 27 27 28 29 28 27 27 30 34 34 34 35 36 35 33 30 26 23 22 23 23 21 22 22 20 20 22 20 13 8 11 14 15 15 15 14 13 13 14 16 17 17 17 17 17 16 16 18 20 20 21
22 22 23 22 22 21 20 21 21 21 21 22 23 24 24 25 26 25 24 25 25 24 25 24 24 24 25 25 25 26 31 35 37 36 36 37 38 38 37 34 28 27 29 27 23 23 22 22 22 23 21 15 11 13 14 12 14 16 15 14 15 17 20 21 19 19 20 21 19 18 20 21 22 21
22 22 22 21 20 18 18 20 21 21 20 20 21 23 23 24 26 27 26 24 23 23 24 23 23 24 24 24 25 27 31 34 35 36 36 37 38 38 38 38 36 35 34 30 27 26 25 25 24 24 24 20 14 13 13 12 14 18 18 17 18 19 21 22 22 23 23 22 21 21 22 21 21 21
21 20 20 18 17 17 18 19 19 21 21 21 22 23 23 24 26 28 29 27 24 23 23 22 23 24 24 25 25 27 31 33 33 34 34 35 36 37 37 38 39 39 37 34 30 29 28 28 27 27 28 25 19 15 13 14 17 21 21 19 19 20 21 20 22 26 26 24 23 23 22 19 17 17
19 17 18 19 18 19 20 20 19 20 21 24 24 23 23 25 26 27 30 29 26 24 23 22 22 23 25 27 28 28 30 31 30 31 32 32 33 34 34 36 37 38 38 36 33 30 29 30 31 30 29 28 25 21 17 16 20 25 26 23 21 23 24 22 23 26 26 25 25 24 20 17 15 15
19 19 21 22 22 22 22 22 21 21 20 22 23 23 23 24 24 24 27 29 26 24 24 22 22 23 25 28 29 27 26 26 28 29 29 29 31 31 31 31 32 34 34 34 34 32 29 29 31 30 27 25 25 24 23 20 21 25 28 27 23 22 24 25 26 27 25 25 26 24 21 19 17 15
20 23 24 24 23 23 23 22 22 21 20 19 20 21 23 22 21 20 24 26 26 26 26 26 25 25 24 24 24 24 24 26 28 28 28 28 29 29 28 27 27 28 29 31 32 31 29 29 31 30 27 25 25 28 28 25 23 24 27 29 27 24 24 26 27 26 26 25 25 23 21 20 19 16
23 25 25 24 22 21 20 21 20 19 19 18 18 19 20 21 20 18 19 23 26 27 27 27 26 24 23 23 23 24 25 27 28 27 27 28 28 27 25 24 23 23 24 25 27 28 30 31 30 29 29 29 28 28 27 25 25 27 28 28 26 24 26 28 27 26 28 28 25 23 21 20 19 18
24 25 24 22 20 19 19 20 19 18 18 18 17 17 19 20 20 18 18 21 24 24 25 25 24 23 22 24 25 24 25 26 27 26 26 27 26 24 24 24 23 22 21 21 22 24 26 27 27 28 30 30 27 26 26 24 24 29 32 31 27 25 27 29 30 31 31 30 28 26 23 21 20 19
23 23 22 20 19 18 18 19 19 18 17 17 16 16 18 20 20 19 19 21 22 22 23 24 24 23 22 23 23 24 25 25 25 25 26 27 25 23 23 24 23 22 22 20 20 21 22 23 24 25 26 24 21 22 26 25 23 26 31 31 29 28 29 31 32 32 32 32 31 29 25 22 21 19
21 21 20 19 18 18 18 19 19 19 17 16 15 15 16 17 19 19 20 22 23 23 24 24 24 24 23 23 23 23 24 23 22 23 25 26 25 24 23 23 21 21 22 21 20 21 22 23 22 19 16 14 11 12 19 24 25 27 28 26 24 28 33 34 34 31 29 29 30 29 27 24 22 20
20 20 18 17 17 17 18 18 18 18 17 17 17 16 15 15 16 17 19 20 22 23 24 24 25 25 25 24 24 23 23 21 21 22 22 24 24 24 24 23 22 23 23 22 22 23 24 25 25 20 11 7 7 6 7 15 23 28 30 30 28 31 35 35 34 32 29 29 29 29 28 26 23 22
20 19 18 18 19 19 20 19 19 19 19 19 19 18 16 15 15 16 18 19 20 22 25 25 25 25 24 24 24 24 23 22 21 21 22 23 23 23 21 21 21 23 24 23 24 26 26 26 28 23 13 6 5 4 4 8 16 24 30 31 31 33 36 35 32 30 28 28 28 28 29 28 26 24
21 20 19 20 20 20 20 19 18 18 19 19 20 19 18 17 16 16 17 16 15 18 23 23 22 21 21 22 23 23 21 21 21 21 21 22 23 23 20 18 18 19 21 22 24 28 30 28 28 26 19 10 6 7 7 9 14 21 29 33 34 35 35 34 32 29 27 28 27 27 28 30 29 28
24 22 21 21 21 20 19 18 17 18 18 19 19 19 18 16 15 15 17 15 12 13 18 20 20 21 22 23 23 22 20 20 19 19 20 21 23 22 20 18 17 17 17 18 21 24 27 27 27 28 25 17 13 16 18 18 20 24 30 33 35 36 35 35 34 31 29 30 31 30 30 30 31 30
25 24 23 22 21 19 18 17 18 18 18 19 19 19 17 16 15 16 16 13 11 12 16 20 21 22 23 23 23 22 22 21 21 21 20 21 23 23 21 20 20 18 17 17 18 20 22 22 23 25 23 20 22 29 33 29 26 28 31 31 32 34 35 35 36 36 34 34 36 35 31 29 29 27
21 22 22 21 20 18 18 18 19 18 17 18 19 19 17 16 17 17 14 11 10 13 16 19 21 22 23 24 24 23 23 23 23 23 23 22 23 25 24 22 20 19 17 16 17 18 18 19 21 24 26 29 34 35 29 20 18 23 27 27 28 32 34 34 36 39 39 39 40 36 29 25 26 24
18 19 19 19 19 19 19 19 19 18 16 16 16 17 16 15 15 14 10 8 10 12 13 15 17 20 23 25 25 25 25 25 24 24 24 23 21 22 24 23 21 20 19 16 16 20 24 25 28 32 35 37 36 28 16 11 15 23 27 27 26 28 29 29 33 37 39 41 41 36 29 25 23 19
18 18 19 19 19 19 17 17 17 17 15 13 13 13 13 13 11 10 9 9 9 8 7 7 9 12 17 21 23 25 25 24 23 23 24 24 22 20 19 18 18 21 23 22 23 27 31 32 34 35 33 33 33 28 20 17 21 24 25 26 26 25 25 25 29 34 36 33 30 29 28 25 19 16
19 19 19 19 18 18 16 14 14 14 12 10 10 10 11 11 12 12 10 9 6 4 1 2 3 4 7 11 15 18 18 18 18 18 18 18 18 18 18 21 23 26 29 31 30 29 27 27 29 32 30 28 31 31 26 22 23 24 24 26 27 28 28 28 28 30 29 23 18 17 18 15 11 15
20 19 18 16 16 16 14 13 12 10 9 8 7 8 9 11 13 11 8 7 6 4 3 3 4 4 6 8 10 11 12 13 14 16 17 20 23 25 28 31 31 30 30 31 30 28 26 27 28 30 29 28 30 31 29 26 26 26 26 26 27 28 29 29 27 24 21 16 13 12 11 10 13 20
Wind_Direction
265 262 259 258 256 255 262 269 270 269 267 268 269 257 240 230 226 230 239 233 237 244 241 241 249 251 247 246 244 241 240 241 242 242 244 246 248 250 251 252 251 251 251 253 256 257 256 254 254 254 254 254 255 254 254 255 253 251 252 254 255 255 254 252 252 254 254 255 256 257 258 259 259 260
264 260 259 264 261 254 259 268 272 273 274 273 274 274 261 244 230 219 227 237 235 237 239 241 247 250 249 247 244 242 242 242 242 242 244 246 247 249 251 251 252 252 252 254 255 255 255 254 254 253 254 254 254 254 254 254 254 251 251 252 252 251 251 252 254 255 256 257 257 257 257 257 258 259
263 262 263 265 263 259 262 269 272 272 274 276 276 278 274 258 240 228 217 233 245 237 236 244 248 249 249 247 245 244 245 245 243 242 244 246 248 250 252 253 253 253 254 255 254 255 255 255 255 255 255 255 255 255 255 255 255 254 252 252 251 250 250 252 254 255 256 258 257 256 256 256 257 259
267 266 266 267 265 264 265 268 271 271 268 272 274 275 278 269 250 233 219 217 249 243 242 247 248 245 244 246 246 246 247 247 244 243 243 246 249 251 253 254 254 254 254 255 255 255 256 257 256 255 256 257 258 259 259 258 258 256 254 252 250 249 249 250 253 256 258 259 257 256 256 256 256 258
272 268 267 268 266 263 263 265 268 267 263 265 268 271 275 272 256 237 223 218 243 247 244 242 241 240 237 239 243 246 248 247 245 243 243 246 249 250 251 252 252 252 253 254 255 254 255 256 256 256 256 257 258 260 261 261 260 259 258 256 253 251 251 251 253 256 259 260 260 258 256 255 255 257
275 271 266 266 265 260 259 261 261 259 257 259 263 266 270 271 265 250 236 228 231 244 242 235 233 233 231 233 237 241 244 244 244 243 243 243 244 246 248 249 249 249 250 252 254 254 254 255 256 257 257 258 259 260 260 261 261 261 262 261 260 258 256 255 256 258 260 261 262 261 258 256 254 256
278 274 269 267 266 260 259 261 259 257 255 255 258 261 264 267 272 269 255 240 231 234 241 237 229 224 224 229 233 236 239 241 242 242 242 242 242 242 243 245 247 248 248 252 254 255 256 257 258 259 259 259 259 259 260 261 262 263 264 264 263 262 260 259 259 261 262 263 264 263 261 258 256 258
277 274 271 270 268 263 261 261 261 259 258 257 258 260 262 265 269 273 270 255 241 235 238 239 234 228 225 228 231 232 233 236 239 241 242 242 242 242 242 245 247 247 248 252 254 254 254 256 258 259 260 260 260 260 260 261 262 263 264 265 264 264 263 262 262 263 264 265 265 264 263 261 260 260
274 272 272 272 271 266 262 262 263 262 261 260 260 260 261 263 266 269 272 269 257 245 239 242 241 233 226 226 229 230 229 231 234 237 240 240 241 242 242 244 245 245 245 248 252 254 256 258 260 260 260 259 259 260 259 259 260 262 264 265 266 266 265 265 264 263 263 264 264 264 264 263 262 261
275 273 272 273 272 267 263 261 262 263 262 259 258 260 260 261 263 265 268 275 272 257 246 246 247 234 221 219 223 226 227 227 227 228 232 236 238 239 240 242 242 241 243 246 250 255 257 259 261 261 260 259 259 260 259 258 258 259 261 264 266 267 266 264 262 260 260 261 262 263 264 263 263 261
277 276 276 276 275 271 266 262 261 261 261 258 257 258 260 261 262 262 264 270 276 268 253 247 247 235 220 216 219 222 223 224 226 224 224 228 233 235 238 241 241 241 243 247 250 252 254 258 260 260 261 262 261 260 259 258 258 257 258 260 263 264 264 262 260 258 258 259 260 262 262 263 264 262
276 277 278 278 277 275 270 266 263 260 259 258 258 258 259 260 261 261 261 262 269 269 255 246 244 235 219 212 214 215 213 213 218 223 224 227 232 235 238 242 243 243 243 246 249 250 252 255 256 257 260 263 263 261 260 260 260 260 260 259 261 261 260 259 258 256 256 257 258 261 261 263 264 264
276 276 276 277 279 278 275 272 269 264 261 259 258 258 257 257 257 258 258 257 262 266 257 246 240 231 217 209 205 202 203 208 215 220 222 228 235 238 241 243 244 244 245 247 250 251 253 254 255 257 260 264 264 262 261 262 264 264 262 261 260 260 259 258 257 255 255 256 257 260 261 261 262 264
277 278 277 277 280 281 280 278 274 267 263 259 257 256 255 253 251 251 249 247 250 257 260 252 240 230 219 210 204 204 208 212 214 214 216 225 232 235 240 246 245 243 243 246 250 252 252 252 253 254 258 262 263 262 262 265 268 269 266 264 261 260 260 258 256 254 254 255 256 258 260 260 260 261
275 278 279 279 280 281 282 281 277 271 265 261 259 259 258 255 251 249 244 240 238 241 251 258 249 241 237 220 208 209 211 209 209 211 215 221 224 223 227 242 247 244 241 241 245 251 251 250 251 254 258 262 262 262 264 266 269 270 269 267 263 262 260 256 253 253 253 253 254 255 257 258 258 257
274 276 277 278 279 281 284 285 282 278 274 269 264 262 261 257 253 249 245 241 237 233 238 247 244 242 247 237 214 208 209 208 208 211 216 220 221 221 220 228 241 245 242 236 239 248 251 248 249 252 257 260 260 260 262 263 266 267 266 267 264 260 257 252 250 251 252 250 248 249 253 255 251 242
272 273 275 276 277 279 283 285 284 282 280 276 271 266 262 259 255 252 247 244 243 240 236 234 234 236 243 245 232 217 211 211 209 208 214 220 222 222 224 234 244 246 241 231 232 245 251 247 245 249 253 257 258 259 259 260 262 261 261 263 260 252 247 245 243 244 245 241 237 238 240 234 225 214
273 272 273 273 274 277 279 281 282 281 280 278 275 269 263 260 258 255 250 245 242 241 237 234 235 237 238 243 243 232 219 215 213 212 216 221 223 226 234 244 248 247 241 234 229 240 249 245 241 246 250 252 253 254 256 258 257 255 256 258 253 246 242 236 230 231 234 229 224 225 217 201 196 190
276 274 273 272 273 275 277 278 279 279 278 277 275 270 264 262 261 257 252 245 240 238 237 235 237 239 239 243 246 240 230 222 220 222 226 229 231 235 241 248 250 248 243 234 224 232 246 244 239 244 249 249 249 251 253 254 250 246 249 249 244 241 240 231 222 223 229 223 209 201 188 176 178 177
279 277 275 273 273 274 276 277 276 277 276 273 270 266 261 258 258 258 255 249 244 240 237 236 238 238 238 243 249 248 240 231 230 229 229 231 233 235 240 248 250 249 244 232 222 225 240 243 238 242 246 243 244 245 245 245 241 240 244 243 238 234 231 227 223 220 217 206 186 175 166 164 171 170
284 281 279 277 275 275 276 276 275 276 275 270 266 264 260 254 252 254 255 250 245 242 238 236 236 235 236 240 246 247 242 240 240 234 225 228 231 225 226 239 243 244 243 233 223 222 234 239 234 235 240 239 240 241 240 237 234 237 240 234 230 234 230 227 225 211 190 178 173 168 165 169 173 166
286 285 283 280 276 274 275 277 278 278 274 269 265 263 261 257 251 250 250 247 243 240 237 233 232 233 236 238 240 242 241 242 243 238 234 236 231 219 218 229 235 239 243 236 222 216 227 232 226 219 220 223 228 233 236 236 230 230 231 230 233 236 228 224 219 196 173 170 175 175 176 177 171 163
286 286 284 281 277 275 277 279 279 278 275 268 264 262 258 253 252 252 251 247 244 240 235 231 230 231 233 234 235 238 240 241 241 240 242 241 232 221 223 229 228 233 244 237 222 212 219 224 216 207 198 195 216 224 226 230 229 223 222 226 228 220 210 210 202 182 173 176 174 174 182 179 168 159
285 285 283 282 281 281 283 284 281 280 277 269 263 262 256 250 253 256 254 249 246 241 236 232 229 228 229 230 230 231 236 240 239 237 239 239 234 228 228 228 226 226 238 236 223 214 217 220 214 211 209 205 200 206 210 215 218 217 218 220 215 201 195 194 185 177 178 178 169 168 175 170 163 158
283 282 281 282 285 286 287 287 284 282 281 273 264 260 259 257 258 258 254 250 247 241 238 236 233 232 232 230 226 223 230 239 239 235 236 238 236 232 230 229 228 229 236 237 227 217 216 215 212 210 211 214 201 187 197 208 211 211 214 214 207 197 190 182 174 172 172 166 161 162 163 161 160 160
280 281 282 284 288 289 288 284 281 280 282 280 270 263 263 264 261 256 251 250 247 241 239 239 237 235 234 231 225 221 227 236 240 238 237 239 238 235 233 232 230 231 236 236 230 224 219 215 212 205 201 206 201 185 184 196 205 208 208 205 205 201 190 177 170 171 169 162 159 162 162 162 165 166
280 282 284 287 291 292 290 287 281 275 275 277 274 268 268 266 262 256 250 245 243 242 242 241 239 237 233 229 224 220 223 230 236 237 237 238 238 237 236 236 236 238 240 240 235 231 226 222 220 214 206 202 194 183 182 184 194 200 199 197 200 198 189 180 174 172 170 165 163 164 163 165 170 174
280 281 285 290 292 290 290 291 286 276 268 267 268 270 271 270 265 258 250 242 236 236 237 237 236 235 232 229 226 223 222 225 229 232 234 235 236 237 239 240 240 239 239 240 239 236 232 228 226 224 217 208 197 190 190 186 188 192 190 189 191 189 184 184 181 173 168 167 165 161 160 163 170 177
276 282 291 295 291 286 286 287 287 282 271 263 263 267 272 272 268 260 250 241 233 229 231 233 232 231 230 229 230 230 228 227 227 227 230 232 235 237 239 240 240 238 237 238 238 236 235 232 229 227 222 214 206 199 194 185 183 186 185 181 181 183 183 184 183 175 167 166 164 158 155 157 159 163
278 289 296 294 289 286 285 284 284 285 280 270 264 263 265 269 270 263 250 239 230 226 230 233 234 233 230 227 228 231 232 233 233 229 227 228 231 232 233 233 235 236 236 236 235 234 234 233 231 227 220 212 209 208 204 193 181 182 185 181 175 178 182 181 178 175 171 165 160 154 150 151 152 156
286 293 295 291 287 284 284 283 282 281 278 272 265 261 261 265 268 264 250 237 229 228 231 233 235 236 234 230 229 230 231 235 238 234 229 227 228 229 227 226 228 230 231 233 233 233 234 233 230 226 220 215 214 211 205 195 180 177 183 183 176 174 178 175 170 169 168 162 155 151 151 152 154 158
285 290 289 286 283 281 280 282 281 276 270 264 261 261 262 262 262 262 250 237 232 231 233 233 234 234 235 236 237 235 232 233 235 233 229 228 229 228 223 222 225 227 228 230 230 233 238 239 237 235 230 225 219 209 198 191 185 180 179 180 177 172 171 168 161 160 161 156 148 147 148 151 155 159
281 283 282 279 279 278 279 281 279 273 265 259 256 259 261 258 256 254 246 237 234 232 232 233 234 233 231 232 233 232 231 233 234 232 228 227 228 225 221 220 223 224 226 228 227 230 237 240 242 242 235 227 221 210 195 187 186 184 178 175 172 167 165 162 157 156 157 151 140 135 136 141 147 151
275 273 271 273 275 277 280 283 283 278 271 264 259 259 260 257 252 249 246 244 242 236 231 231 233 233 229 227 226 226 227 230 231 230 229 228 227 224 219 218 220 222 224 223 221 220 221 222 225 228 226 222 218 211 200 191 186 184 179 174 167 159 155 153 151 151 153 149 139 129 124 129 138 142
263 260 261 269 276 279 281 283 284 281 276 270 267 265 263 259 255 251 248 247 245 241 237 234 233 233 232 230 228 226 225 226 226 227 229 228 225 224 221 218 217 219 219 218 215 210 208 206 201 198 199 198 194 197 201 197 190 179 169 161 153 144 141 144 148 148 148 147 143 133 123 123 130 135
250 251 257 266 273 275 275 277 279 277 272 269 268 266 264 264 264 262 260 256 249 243 240 238 236 235 234 233 233 231 229 227 224 224 225 225 223 223 221 218 217 218 217 215 211 204 199 196 187 174 163 163 163 161 185 195 190 176 159 148 143 140 139 142 146 148 146 146 146 141 133 128 130 132
246 251 257 263 266 267 267 268 270 271 268 265 263 259 256 256 262 268 271 269 263 255 247 240 235 233 232 233 236 235 231 228 224 222 222 224 223 223 222 220 219 218 216 214 210 203 197 191 182 174 167 165 172 162 138 157 170 165 152 141 135 137 139 137 134 135 139 142 144 143 138 133 129 130
249 254 257 258 259 260 263 265 266 267 268 266 263 259 254 252 255 260 263 265 270 269 258 246 238 238 240 240 240 237 233 229 225 221 219 218 218 220 223 223 219 214 211 208 204 199 195 190 185 181 176 166 161 168 154 130 131 142 147 144 138 137 139 136 128 126 131 135 136 137 135 132 129 128
248 249 251 253 255 260 265 268 268 268 269 268 266 262 260 261 263 261 256 254 261 265 258 251 247 247 246 244 241 239 237 232 227 222 219 218 217 217 218 218 216 210 202 194 192 193 193 192 192 191 186 181 176 167 151 129 120 131 145 151 149 145 143 138 132 128 129 132 132 130 128 128 128 130
249 249 251 254 259 264 266 267 270 271 271 271 268 264 267 274 271 258 249 247 249 247 245 244 243 242 242 243 242 241 239 235 232 227 222 219 218 215 214 214 212 203 188 176 177 183 187 189 192 192 184 170 153 139 127 115 111 122 135 148 157 159 157 153 147 140 137 137 136 131 127 127 127 129
254 253 255 258 261 265 266 268 272 273 272 272 272 271 273 275 268 256 249 248 247 241 240 243 245 246 246 245 242 240 238 235 233 229 223 220 217 213 210 210 205 193 179 170 168 169 171 174 176 169 154 139 129 122 114 103 97 104 115 132 150 157 158 161 161 153 146 143 138 129 124 126 129 131
262 258 259 263 267 270 272 275 277 275 272 273 277 280 281 275 260 247 240 237 236 237 241 249 254 255 251 245 240 238 235 232 229 226 222 218 214 209 208 209 200 181 166 158 150 146 145 148 150 146 138 131 125 116 108 108 107 104 108 120 136 146 151 157 161 156 150 147 143 136 132 133 133 134
266 264 265 269 275 278 279 279 279 278 276 274 274 279 283 273 248 222 210 211 215 219 230 248 258 259 253 245 238 233 230 227 223 221 218 216 213 210 205 199 181 158 143 133 129 131 133 136 138 136 131 128 126 121 116 116 115 112 112 116 122 129 134 141 149 151 149 149 150 150 151 148 144 152
269 268 270 274 279 282 281 277 274 273 271 269 271 280 280 258 225 202 194 190 179 162 175 282 294 279 249 232 222 216 215 214 211 208 204 199 191 176 158 143 135 131 128 125 123 123 123 123 127 127 123 120 122 122 119 116 114 113 113 115 117 118 121 126 134 140 141 143 146 152 154 151 148 157
270 270 272 275 279 281 276 268 262 259 255 254 261 271 261 232 202 181 166 149 130 108 74 60 65 89 123 139 145 148 150 153 155 149 141 136 136 133 130 127 125 124 124 124 122 119 114 111 113 116 115 114 118 120 119 118 118 116 114 115 116 118 122 128 132 133 132 132 132 132 135 134 134 141